Regional Weather Roundup
Issued by NWS

Home | Current Version | Previous Version | Graphics & Text | Print | Product List | Glossary On
Versions: 1 2 3 4 5 6 7 8 9 10 11 12 13 14 15 16 17 18 19 20 21 22 23 24 25 26 27 28 29 30 31 32 33 34 35 36 37 38 39 40 41 42 43 44 45 46 47 48 49 50
000
ASUS43 KMPX 241210
RWRMN
WEATHER ROUNDUP FOR MINNESOTA
NATIONAL WEATHER SERVICE TWIN CITIES/CHANHASSEN MN
600 AM CST SAT FEB 24 2018


NOTE: "FAIR" INDICATES FEW OR NO CLOUDS BELOW 12,000 FEET WITH NO
SIGNIFICANT WEATHER AND/OR OBSTRUCTIONS TO VISIBILITY. N/A MEANS
CURRENT SKY AND/OR WEATHER CONDITIONS ARE NOT AVAILABLE.

MNZ060>063-068>070-241300-
   Twin Cities Metro

CITY           SKY/WX    TMP DP  RH WIND       PRES   REMARKS
TWIN CITIES    FAIR       8   5  87 CALM      30.18F FOG
6HR MIN TEMP:   5; 6HR MAX TEMP:  17;

ST PAUL        FOG       11   7  84 CALM      30.20F VSB<1/4
CRYSTAL        FAIR       1  -3  83 CALM      30.17F FOG
BLAINE         FAIR       1   0  92 CALM      30.17F
LAKEVILLE        N/A     -2  -4  92 CALM      30.16F FOG
EDEN PRAIRIE   FAIR       3   0  87 E5        30.16F FOG     WCI  -6
6HR MIN TEMP:   3; 6HR MAX TEMP:  15;

SOUTH ST PAUL  CLOUDY     6   3  87 CALM      30.18F FOG
LAKE ELMO      FOG      N/A N/A N/A CALM      30.19F VSB 1/2
$$
MNZ001>005-007-008-013>017-022>024-027-028-241300-
   Northwest Minnesota

CITY           SKY/WX    TMP DP  RH WIND       PRES   REMARKS
BEMIDJI        FAIR      -9 -13  82 CALM      30.08F
HALLOCK        FAIR       1  -2  85 S15       30.02F WCI -18
ROSEAU         FAIR       1  -4  78 S10       30.05S WCI -14
WARROAD        FAIR       1  -2  85 S3        30.05F
THIEF RVR FALL FAIR      -2  -5  87 S8        30.07F WCI -17
CROOKSTON      MOCLDY     3   1  92 S14       30.10R FOG     WCI -15
FOSSTON        FAIR      -8 -11  84 CALM      30.08S
DETROIT LAKES  FAIR      -4  -8  84 CALM      30.07F
MOORHEAD       FAIR     -11 -15  84 CALM      30.11F
PARK RAPIDS    FAIR      -6 -12  75 CALM      30.07F
MAHNOMEN       FAIR      -1  -4  87 SE5       30.07F WCI -11
$$
MNZ006-009>011-018-025>026-241300-
   North Central Minnesota

CITY           SKY/WX    TMP DP  RH WIND       PRES   REMARKS
BAUDETTE       FAIR      -4  -7  87 SE5       30.06F WCI -15
FLAG ISLAND    LGT SNOW  -6  -9  84 SE6       30.04F VSB 1   WCI -18
INTL FALLS     FAIR      -9 -10  96 SE6       30.10F WCI -22
6HR MIN TEMP:  -9; 6HR MAX TEMP:   4;

WASKISH        FAIR      -2  -6  84 SE3       30.10R
LONGVILLE      FAIR     -13 -17  84 CALM      30.12F
GRAND RAPIDS   FAIR      -8 -11  86 CALM      30.15S
CRANE LAKE     FAIR     -11 -15  84 CALM      30.15F
ORR            FAIR      -4  -8  84 CALM      30.10S
COOK             N/A    -11 -17  77 CALM      30.14S
WALKER         FAIR     -10 -14  80 E3        30.10F
$$
MNZ012-019>021-037-241300-
   Northeast Minnesota

CITY           SKY/WX    TMP DP  RH WIND       PRES   REMARKS
DULUTH         FAIR       8   3  80 N5        30.13F WCI   0
6HR MIN TEMP:   8; 6HR MAX TEMP:  21;

ELY            FAIR     -11 -17  77 CALM      30.13F
HIBBING        FAIR     -13 -17  82 CALM      30.14R
EVELETH        FAIR      -9 -15  77 CALM      30.14S
DULUTH HARBOR  FAIR       9   7  92 W3        30.20F
TWO HARBORS    FAIR       7   1  78 CALM      30.14S
SILVER BAY     FAIR      10   7  85 CALM      30.14S
GRAND MARAIS     N/A      6   1  80 CALM      30.19S
G MARAIS ARPRT FAIR       7   0  72 NW8       30.07F WCI  -6
$$
MNZ029>031-032-039>041-046>048-054>057-064-241300-
   West Central Minnesota

CITY           SKY/WX    TMP DP  RH WIND       PRES   REMARKS
FERGUS FALLS   FAIR      -6  -9  84 S10         N/A  WCI -23
WHEATON        LGT SNOW  -2  -6  84 CALM      30.15S VSB 1
MORRIS         HAZE      -8 -13  77 SE3       30.12F VSB 1/4
ALEXANDRIA     FAIR       1  -2  87 SE9       30.12R WCI -14
ELBOW LAKE     FAIR      -5  -8  84 SE6       30.13S WCI -17
WADENA         FLURRIES -11 -17  77 CALM      30.10S
GLENWOOD       FAIR      -6  -8  92 SE5       30.13F WCI -17
APPLETON       CLOUDY    -8 -11  84 CALM      30.15S HAZE
BENSON         CLOUDY    -9 -15  77 CALM      30.15F
ORTONVILLE     CLOUDY    -6  -9  84 CALM      30.12F
MADISON        CLOUDY     0  -6  78 CALM      30.14S FOG
WILLMAR        FAIR      -2  -6  84 CALM      30.14F
$$
MNZ033>034-036-042>043-049>051-058-059-241300-
   Central Minnesota

CITY           SKY/WX    TMP DP  RH WIND       PRES   REMARKS
ST CLOUD       FAIR      -7 -11  83 CALM      30.16F
6HR MIN TEMP:  -9; 6HR MAX TEMP:   7;

SAUK CENTRE    FAIR     -10 -13  83 CALM      30.14F
PAYNESVILLE    FAIR      -7 -11  84 CALM      30.15F
AITKIN         FAIR     -13 -17  84 CALM      30.13S
PINE RIVER     FAIR     -11 -15  84 CALM      30.14F
BRAINERD       FAIR      -9 -15  75 CALM      30.13F
STAPLES        FAIR     -13 -17  84 CALM      30.10F
LONG PRAIRIE   FAIR      -9 -13  84 SE5       30.14R WCI -21
LITTLE FALLS   FAIR      -8 -15  71 CALM      30.17R
LITCHFIELD     FAIR      -4  -8  84 CALM      30.14F
BUFFALO        FAIR      -5  -9  82 CALM      30.17F
MAPLE LAKE     FAIR      -7 -10  86 CALM      30.17F
HUTCHINSON     FAIR      -7 -11  83 CALM      30.14F
$$
MNZ037-044-045-052-053-241300-
   East Central Minnesota

CITY           SKY/WX    TMP DP  RH WIND       PRES   REMARKS
PRINCETON      FAIR      -6  -9  84 CALM      30.17F
CAMBRIDGE        N/A      0  -9  65 CALM      30.19F
RUSH CITY      CLOUDY     1  -3  85 CALM      30.19F FOG
MOOSE LAKE     FAIR      -4  -9  77 CALM      30.15F
HINCKLEY       FAIR      -4  -6  92 CALM      30.18S
CLOQUET        FAIR       5   1  85 CALM      30.14F
MCGREGOR       FAIR      -6  -9  84 CALM      30.15S
$$
MNZ071>073-080-081-089-090-097-098-241300-
   Southwest Minnesota

CITY           SKY/WX    TMP DP  RH WIND       PRES   REMARKS
MONTEVIDEO     CLOUDY    -6  -9  84 CALM      30.14S
GRANITE FALLS  FOG       -2  -5  84 CALM      30.17R VSB 1/4
CANBY          CLOUDY     1  -3  85 CALM      30.13S
MARSHALL       CLOUDY     2  -1  88 CALM      30.13S
REDWOOD FALLS  CLOUDY    -1  -3  91 CALM      30.14S FOG
OLIVIA         CLOUDY     0  -6  78 CALM      30.14S
PIPESTONE      LGT SNOW   9   7  92 CALM      30.06S
WORTHINGTON    CLOUDY     9   7  92 E6        30.06F FOG     WCI  -1
JACKSON        FOG        9   5  85 CALM      30.08F VSB 1/4
TRACY          CLOUDY    11   9  91 CALM      30.10F
SLAYTON        CLOUDY    10   8  92 CALM      30.08F FOG
$$
MNZ065>067-074>077-082>085-091>093-241300-
   South Central Minnesota

CITY           SKY/WX    TMP DP  RH WIND       PRES   REMARKS
NEW ULM        CLOUDY     0  -6  78 CALM      30.14F
ST JAMES       FOG        1   0  92 CALM      30.14F VSB 1/4
FAIRMONT       FOG        9   7  92 NE5       30.12F VSB 1/4 WCI   1
GLENCOE        FAIR      -3  -7  85 CALM      30.15F
FARIBAULT      FAIR       0  -2  92 CALM      30.16F FOG
OWATONNA       LGT SNOW   3   1  92 CALM      30.13F
WASECA         LGT SNOW   3   0  85 CALM      30.14F
ALBERT LEA     FAIR       9   7  92 CALM      30.11F
$$
MNZ078>079-086>088-094>096-241300-
   Southeast Minnesota

CITY           SKY/WX    TMP DP  RH WIND       PRES   REMARKS
ROCHESTER      MIX PCPN  11  10  96 NE7       30.12F VSB 1/4 WCI   0
6HR MIN TEMP:   7; 6HR MAX TEMP:  15; 6HR PCP: TRACE;

RED WING       CLOUDY    10   7  85 CALM      30.19F HAZE
STANTON        CLOUDY    -5  -9  81 CALM      30.16F
DODGE CENTER   FOG        7   3  85 CALM      30.12F VSB 1/4
WINONA         FOG       12  10  92 CALM      30.19F VSB 1
AUSTIN         FAIR      10   7  85 CALM      30.11F
PRESTON        FAIR      12  10  90 CALM      30.14F FOG
$$
ABBREVIATIONS USED IN REMARKS
   TC - TEMPERATURES IN CELSIUS
  WCI - WIND CHILL INDEX
   HX - HEAT INDEX
  VSB - VISIBILITY
$$




USA.gov is the U.S. government's official web portal to all federal, state and local government web resources and services.